Location: Unspecified
(0.0000°N, 0.0000°E)
Time: 11:09:17
(UTC+02:00)

AO-40 - Visible Passes

Search period start: 02 September 2014 00:00
Search period end: 12 September 2014 00:00
Orbit: 1084 x 58737 km, 8.4° (Epoch: 31 August)

Date Brightness Start Highest point End Pass type
(mag) Time Alt. Az. Time Alt. Az. Time Alt. Az.
02 Sep ? 12:39:33 10° W 03:15:44 85° S 13:09:35 10° ENE visible
02 Sep ? 22:12:45 10° E 05:22:44 90° SSW 07:59:43 10° ENE visible
04 Sep ? 00:53:46 10° E 01:10:56 10° E 01:26:22 10° E visible
04 Sep ? 22:52:27 10° W 00:48:48 80° SSW 08:07:55 10° W visible
05 Sep ? 17:41:36 10° W 17:47:54 86° S 18:29:54 10° E daylight
06 Sep ? 22:03:40 10° E 05:31:22 89° NNE 07:31:48 10° ENE visible
08 Sep ? 22:24:28 10° W 00:48:21 81° S 07:58:54 10° W visible
09 Sep ? 17:14:04 10° W 17:20:04 87° S 17:51:05 10° E daylight
10 Sep ? 21:54:35 10° E 05:23:28 86° ENE 07:03:49 10° ENE visible
